Kenai, AK

7:13 PM AKST on February 12, 2016 (GMT -0900)
Kenai Municipal

Weather History for PAEN - November, 2012

Change the Weather History Date:

Friday, November 2, 2012

  Actual Average Record
Temperature  
Mean Temperature 32 °F -  
Max Temperature 36 °F 34 °F 100 °F (2003)
Min Temperature 28 °F 20 °F -11 °F (1985)
Degree Days  
Heating Degree Days 33    
Moisture  
Dew Point 12 °F    
Average Humidity 44    
Maximum Humidity 66    
Minimum Humidity 31    
Precipitation  
Precipitation 0.00 in - - ()
Sea Level Pressure  
Sea Level Pressure 29.34 in    
Wind  
Wind Speed 19 mph (NNE)    
Max Wind Speed 28 mph    
Max Gust Speed 37 mph    
Visibility 10 miles    
Events      
Averages and records for this station are not official NWS values.
T = Trace of Precipitation, MM = Missing Value Source: NWS Daily Summary

Daily Weather History Graph

Daily Weather History Graph

Search for Another Location

Airport or City:

Trip Planner

Search our weather history database for the weather conditions in past years. The results will help you decide how hot, cold, wet, or windy it might be!

Date:

Astronomy

Nov. 02, 2012 Rise Set
Actual Time 9:34 AM AKDT 6:01 PM AKDT
Civil Twilight 8:47 AM AKDT 6:48 PM AKDT
Nautical Twilight 7:57 AM AKDT 7:38 PM AKDT
Astronomical Twilight 7:07 AM AKDT 8:27 PM AKDT
Moon 8:20 PM AKDT (11/2) 1:41 PM AKDT (11/2)
Length of Visible Light 10h 00m
Length of Day
8h 27m
Waning Gibbous, 86% of the Moon is Illuminated
Nov 2
Waning Gibbous
Nov 6
Last Quarter
Nov 13
New
Nov 20
First Quarter
Nov 28
Full

Hourly Weather History & Observations

Time (AKDT) Temp. Windchill Dew Point Humidity Pressure Visibility Wind Dir Wind Speed Gust Speed Precip Events Conditions
12:53 AM 28.9 °F 16.1 °F 12.0 °F 49% 29.62 in 10.0 mi NNE 19.6 mph - N/A   Clear
1:53 AM 28.9 °F 15.8 °F 10.9 °F 47% 29.58 in 10.0 mi NNE 20.7 mph 27.6 mph N/A   Mostly Cloudy
2:53 AM 30.0 °F 17.2 °F 12.0 °F 47% 29.55 in 10.0 mi NE 20.7 mph - N/A   Overcast
3:53 AM 30.0 °F 18.7 °F 12.0 °F 47% 29.51 in 10.0 mi NNE 16.1 mph - N/A   Clear
4:53 AM 28.9 °F 17.3 °F 12.0 °F 49% 29.47 in 10.0 mi NNE 16.1 mph - N/A   Clear
5:53 AM 30.9 °F 19.1 °F 10.9 °F 43% 29.43 in 10.0 mi NNE 18.4 mph 27.6 mph N/A   Clear
6:53 AM 32.0 °F 19.2 °F 12.0 °F 44% 29.39 in 10.0 mi North 23.0 mph 27.6 mph N/A   Clear
7:53 AM 33.1 °F 23.0 °F 10.9 °F 40% 29.37 in 10.0 mi NNE 15.0 mph 28.8 mph N/A   Clear
8:53 AM 34.0 °F 22.4 °F 12.0 °F 40% 29.35 in 10.0 mi NNE 20.7 mph 26.5 mph N/A   Clear
9:53 AM 34.0 °F 22.4 °F 10.9 °F 38% 29.32 in 10.0 mi NNE 20.7 mph 32.2 mph N/A   Overcast
10:53 AM 35.1 °F 22.7 °F 10.9 °F 37% 29.28 in 10.0 mi NNE 25.3 mph 32.2 mph N/A   Overcast
11:53 AM 35.1 °F 23.0 °F 10.0 °F 35% 29.26 in 10.0 mi NNE 24.2 mph 33.4 mph N/A   Overcast
12:53 PM 35.1 °F 22.7 °F 7.0 °F 31% 29.25 in 10.0 mi NNE 25.3 mph 34.5 mph N/A   Overcast
1:53 PM 35.1 °F 22.2 °F 9.0 °F 34% 29.22 in 10.0 mi NNE 27.6 mph 36.8 mph N/A   Overcast
2:53 PM 35.1 °F 24.1 °F 10.0 °F 35% 29.22 in 10.0 mi NNE 19.6 mph 29.9 mph N/A   Overcast
3:53 PM 36.0 °F 25.0 °F 10.9 °F 36% 29.22 in 10.0 mi NNE 20.7 mph 29.9 mph N/A   Mostly Cloudy
4:53 PM 35.1 °F 25.2 °F 10.9 °F 37% 29.24 in 10.0 mi NE 16.1 mph 21.9 mph N/A   Partly Cloudy
5:53 PM 34.0 °F 25.0 °F 10.0 °F 37% 29.26 in 10.0 mi NE 12.7 mph - N/A   Mostly Cloudy
6:53 PM 34.0 °F 25.0 °F 10.9 °F 38% 29.27 in 10.0 mi NE 12.7 mph - N/A   Mostly Cloudy
7:53 PM 32.0 °F 22.5 °F 15.1 °F 50% 29.28 in 10.0 mi NE 12.7 mph - N/A   Clear
8:53 PM 33.1 °F 23.0 °F 19.0 °F 56% 29.28 in 10.0 mi NNE 15.0 mph - N/A   Clear
9:53 PM 32.0 °F 20.8 °F 19.0 °F 59% 29.29 in 10.0 mi NNE 17.3 mph - N/A   Clear
10:53 PM 30.0 °F 20.0 °F 19.9 °F 66% 29.29 in 10.0 mi NNE 12.7 mph - N/A   Clear
11:53 PM 30.9 °F 21.2 °F 18.0 °F 59% 29.31 in 10.0 mi NNE 12.7 mph - N/A   Clear